EW4883 Weather Reports


Display with metric or nautical units.
time (UTC)temp
F
wind
direction
speed
MPH
gust
MPH
rain 1hr
in
rain 24hr
in
rain mn
in
humidity
%
barometer
mb
20260504034603 76 360 4.0 17.0 0.00 0.00 0.00 24 1012.3
20260504034053 76 360 6.0 24.0 0.00 0.00 0.00 24 1012.2
20260504033553 77 360 6.0 24.0 0.00 0.00 0.00 23 1012.1
20260504033104 77 360 5.0 16.0 0.00 0.00 0.00 22 1012.0
20260504032556 77 360 6.0 27.0 0.00 0.00 0.00 22 1012.0
20260504032053 77 360 6.0 27.0 0.00 0.00 0.00 21 1012.0
20260504031553 77 360 9.0 27.0 0.00 0.00 0.00 21 1012.0
20260504031052 78 360 7.0 14.0 0.00 0.00 0.00 20 1011.9
20260504030555 78 360 6.0 13.0 0.00 0.00 0.00 20 1011.8
20260504030052 78 360 4.0 22.0 0.00 0.00 0.00 19 1011.6
20260504025553 78 360 6.0 22.0 0.00 0.00 0.00 19 1011.5
20260504025053 78 360 4.0 15.0 0.00 0.00 0.00 18 1011.2
20260504024552 79 360 5.0 18.0 0.00 0.00 0.00 18 1011.2
20260504024053 79 360 5.0 18.0 0.00 0.00 0.00 17 1011.2
20260504023553 79 360 6.0 16.0 0.00 0.00 0.00 17 1011.1
20260504023053 80 360 3.0 13.0 0.00 0.00 0.00 16 1010.9
20260504022553 80 360 5.0 13.0 0.00 0.00 0.00 16 1010.9
20260504022054 80 360 3.0 14.0 0.00 0.00 0.00 16 1010.8
20260504021551 80 360 4.0 17.0 0.00 0.00 0.00 15 1010.7
20260504021054 81 360 6.0 18.0 0.00 0.00 0.00 15 1010.5
20260504020553 81 360 6.0 18.0 0.00 0.00 0.00 15 1010.7
20260504020052 81 360 5.0 16.0 0.00 0.00 0.00 14 1010.6
20260504015553 81 360 3.0 12.0 0.00 0.00 0.00 14 1010.6
20260504015056 81 360 4.0 11.0 0.00 0.00 0.00 14 1010.3
20260504014551 82 360 4.0 21.0 0.00 0.00 0.00 13 1010.4
20260504014056 82 360 3.0 21.0 0.00 0.00 0.00 13 1010.4
20260504013552 82 360 4.0 15.0 0.00 0.00 0.00 13 1010.4
20260504013053 83 360 8.0 16.0 0.00 0.00 0.00 13 1010.4
20260504012553 83 360 5.0 16.0 0.00 0.00 0.00 12 1010.3
20260504012054 84 360 5.0 18.0 0.00 0.00 0.00 12 1010.2
20260504011552 85 360 5.0 18.0 0.00 0.00 0.00 12 1010.2
20260504011053 85 360 5.0 18.0 0.00 0.00 0.00 11 1010.3
20260504010553 86 360 5.0 16.0 0.00 0.00 0.00 11 1010.3
20260504010059 86 360 7.0 15.0 0.00 0.00 0.00 11 1010.4
20260504005632 86 360 6.0 15.0 0.00 0.00 0.00 11 1010.5
20260504005053 86 360 3.0 18.0 0.00 0.00 0.00 11 1010.6
20260504004553 86 360 6.0 18.0 0.00 0.00 0.00 11 1010.6
20260504004049 86 360 4.0 18.0 0.00 0.00 0.00 11 1010.6
20260504003555 86 360 4.0 18.0 0.00 0.00 0.00 11 1010.6
20260504003053 86 360 2.0 13.0 0.00 0.00 0.00 11 1010.3
20260504002551 86 360 3.0 14.0 0.00 0.00 0.00 10 1010.4
20260504002048 87 360 4.0 14.0 0.00 0.00 0.00 10 1010.4
20260504001611 87 360 4.0 13.0 0.00 0.00 0.00 10 1010.4
20260504001051 88 215 4.0 12.0 0.00 0.00 0.00 10 1010.3
20260504000552 88 136 5.0 17.0 0.00 0.00 0.00 10 1010.3
20260504000056 89 0 4.0 17.0 0.00 0.00 0.00 10 1010.2
20260503235550 89 219 8.0 17.0 0.00 0.00 0.00 9 1010.3
20260503235051 89 226 2.0 12.0 0.00 0.00 0.00 10 1010.3
20260503234552 88 217 6.0 17.0 0.00 0.00 0.00 9 1010.3
20260503234051 88 206 6.0 17.0 0.00 0.00 0.00 9 1010.2
20260503233548 89 360 6.0 20.0 0.00 0.00 0.00 10 1010.2
20260503233053 88 360 9.0 21.0 0.00 0.00 0.00 10 1010.1
20260503232551 88 360 8.0 21.0 0.00 0.00 0.00 10 1010.2
20260503232048 89 210 8.0 18.0 0.00 0.00 0.00 10 1010.2
20260503231553 89 196 4.0 18.0 0.00 0.00 0.00 10 1010.3
20260503231051 89 237 7.0 23.0 0.00 0.00 0.00 10 1010.2
20260503230548 89 218 11.0 23.0 0.00 0.00 0.00 10 1010.2
20260503230054 90 215 4.0 15.0 0.00 0.00 0.00 10 1010.1
20260503225550 90 211 6.0 17.0 0.00 0.00 0.00 10 1010.1
20260503225052 90 162 6.0 17.0 0.00 0.00 0.00 10 1010.2
20260503224553 90 222 7.0 15.0 0.00 0.00 0.00 10 1010.3
20260503224052 90 211 6.0 15.0 0.00 0.00 0.00 11 1010.2
20260503223549 90 161 5.0 18.0 0.00 0.00 0.00 11 1010.3
20260503223053 90 360 8.0 18.0 0.00 0.00 0.00 11 1010.3
20260503222554 91 232 5.0 17.0 0.00 0.00 0.00 11 1010.3
20260503222048 91 132 3.0 16.0 0.00 0.00 0.00 12 1010.4
20260503221556 91 225 9.0 16.0 0.00 0.00 0.00 11 1010.5
20260503221055 91 243 3.0 16.0 0.00 0.00 0.00 12 1010.5
20260503220548 91 239 3.0 13.0 0.00 0.00 0.00 12 1010.3
20260503220108 91 123 1.0 5.0 0.00 0.00 0.00 13 1010.4
20260503215547 90 243 1.0 9.0 0.00 0.00 0.00 13 1010.5
20260503215053 90 0 1.0 9.0 0.00 0.00 0.00 14 1010.4
20260503214557 90 161 2.0 10.0 0.00 0.00 0.00 14 1010.5
20260503214050 89 146 2.0 12.0 0.00 0.00 0.00 14 1010.7
20260503213556 89 111 5.0 17.0 0.00 0.00 0.00 15 1010.7
20260503213105 89 136 7.0 17.0 0.00 0.00 0.00 14 1010.9
20260503212550 89 121 6.0 16.0 0.00 0.00 0.00 15 1010.9
20260503212052 89 101 6.0 16.0 0.00 0.00 0.00 16 1011.1
20260503211606 89 103 5.0 14.0 0.00 0.00 0.00 17 1011.1
20260503211057 89 360 5.0 17.0 0.00 0.00 0.00 17 1011.3
20260503210553 88 124 6.0 19.0 0.00 0.00 0.00 18 1011.4
20260503210057 87 99 10.0 19.0 0.00 0.00 0.00 18 1011.5
20260503205553 87 86 8.0 19.0 0.00 0.00 0.00 19 1011.5
20260503205056 86 360 4.0 14.0 0.00 0.00 0.00 20 1011.6
20260503204557 86 360 5.0 15.0 0.00 0.00 0.00 20 1011.6
20260503204053 86 360 7.0 15.0 0.00 0.00 0.00 21 1011.6
20260503203553 86 360 6.0 17.0 0.00 0.00 0.00 21 1011.7
20260503203050 85 360 4.0 17.0 0.00 0.00 0.00 22 1011.7
20260503202553 85 360 6.0 15.0 0.00 0.00 0.00 22 1011.8
20260503202053 85 360 5.0 15.0 0.00 0.00 0.00 22 1011.8
20260503201554 85 360 6.0 16.0 0.00 0.00 0.00 22 1012.0
20260503201055 85 360 7.0 16.0 0.00 0.00 0.00 22 1012.0
20260503200550 85 360 7.0 15.0 0.00 0.00 0.00 22 1012.1
20260503200050 85 360 7.0 15.0 0.00 0.00 0.00 22 1012.2
20260503195552 85 360 5.0 13.0 0.00 0.00 0.00 22 1012.2
20260503195049 85 360 5.0 13.0 0.00 0.00 0.00 22 1012.3
20260503194555 84 360 7.0 13.0 0.00 0.00 0.00 22 1012.4
20260503194053 84 360 4.0 13.0 0.00 0.00 0.00 24 1012.5
20260503193554 84 360 2.0 13.0 0.00 0.00 0.00 24 1012.5
20260503193102 84 360 7.0 13.0 0.00 0.00 0.00 24 1012.7
20260503192553 83 360 5.0 13.0 0.00 0.00 0.00 25 1012.8
20260503192058 83 360 3.0 12.0 0.00 0.00 0.00 27 1013.0
20260503191555 83 360 7.0 12.0 0.00 0.00 0.00 27 1012.9
20260503191056 82 360 6.0 13.0 0.00 0.00 0.00 26 1013.0
20260503190553 82 360 6.0 13.0 0.00 0.00 0.00 27 1013.1
20260503190053 82 360 5.0 15.0 0.00 0.00 0.00 28 1013.0
20260503185553 82 360 5.0 15.0 0.00 0.00 0.00 29 1013.0
20260503185053 81 360 6.0 15.0 0.00 0.00 0.00 30 1013.1
20260503184553 81 360 7.0 15.0 0.00 0.00 0.00 30 1013.2
20260503184055 81 360 7.0 15.0 0.00 0.00 0.00 30 1013.3
20260503183552 80 360 7.0 15.0 0.00 0.00 0.00 30 1013.4
20260503183054 80 360 5.0 15.0 0.00 0.00 0.00 30 1013.6
20260503182556 80 360 6.0 15.0 0.00 0.00 0.00 31 1013.7
20260503182052 80 360 3.0 13.0 0.00 0.00 0.00 31 1013.8
20260503181620 80 360 4.0 13.0 0.00 0.00 0.00 31 1013.9
20260503181053 79 360 6.0 13.0 0.00 0.00 0.00 31 1014.0
20260503180554 79 360 5.0 14.0 0.00 0.00 0.00 31 1014.1
20260503180129 79 360 4.0 14.0 0.00 0.00 0.00 31 1014.3
20260503175556 79 360 7.0 14.0 0.00 0.00 0.00 31 1014.3
20260503175054 79 360 6.0 14.0 0.00 0.00 0.00 31 1014.3
20260503174558 79 136 3.0 12.0 0.00 0.00 0.00 31 1014.3
20260503174053 79 98 5.0 12.0 0.00 0.00 0.00 32 1014.3
20260503173553 79 360 5.0 12.0 0.00 0.00 0.00 32 1014.3
20260503173059 79 360 5.0 10.0 0.00 0.00 0.00 32 1014.5
20260503172558 79 360 4.0 12.0 0.00 0.00 0.00 32 1014.4
20260503172053 78 360 5.0 12.0 0.00 0.00 0.00 32 1014.4
20260503171551 78 360 5.0 15.0 0.00 0.00 0.00 32 1014.5
20260503171053 78 360 6.0 15.0 0.00 0.00 0.00 32 1014.5
20260503170553 78 360 6.0 14.0 0.00 0.00 0.00 33 1014.5
20260503150553 74 360 4.0 11.0 0.00 0.00 0.00 36 1014.6
20260503131053 72 360 3.0 10.0 0.00 0.00 0.00 38 1013.6
20260503130553 72 360 4.0 10.0 0.00 0.00 0.00 38 1013.6
20260503120107 72 360 3.0 10.0 0.00 0.00 0.00 38 1013.4
20260503110549 72 360 3.0 11.0 0.00 0.00 0.00 37 1013.1
20260503100105 74 360 7.0 13.0 0.00 0.00 0.00 35 1013.2
20260503081558 75 360 6.0 13.0 0.00 0.00 0.00 33 1013.8
20260503081052 75 126 5.0 13.0 0.00 0.00 0.00 33 1013.8
20260503080553 75 125 4.0 12.0 0.00 0.00 0.00 33 1013.9
20260503072553 76 360 8.0 18.0 0.00 0.00 0.00 31 1013.7
20260503072053 76 360 10.0 15.0 0.00 0.00 0.00 31 1013.7
20260503071558 76 360 7.0 15.0 0.00 0.00 0.00 31 1013.9
20260503071057 76 360 6.0 15.0 0.00 0.00 0.00 31 1014.0
20260503070552 76 360 6.0 16.0 0.00 0.00 0.00 31 1014.0
20260503060112 77 360 5.0 11.0 0.00 0.00 0.00 29 1013.5
20260503055049 77 360 6.0 12.0 0.00 0.00 0.00 28 1013.4
20260503054552 77 360 5.0 12.0 0.00 0.00 0.00 28 1013.4
20260503054048 77 360 5.0 12.0 0.00 0.00 0.00 28 1013.3
20260503053553 77 360 4.0 11.0 0.00 0.00 0.00 28 1013.3
20260503053055 77 360 4.0 11.0 0.00 0.00 0.00 28 1013.3
20260503052556 78 360 4.0 12.0 0.00 0.00 0.00 28 1013.4
20260503052049 78 360 3.0 12.0 0.00 0.00 0.00 27 1013.4
20260503051554 78 360 4.0 13.0 0.00 0.00 0.00 27 1013.5
20260503051048 78 360 3.0 13.0 0.00 0.00 0.00 27 1013.4
20260503050548 78 360 4.0 13.0 0.00 0.00 0.00 27 1013.3
20260503050056 78 360 7.0 15.0 0.00 0.00 0.00 27 1013.2
20260503045549 78 360 6.0 15.0 0.00 0.00 0.00 27 1013.2
20260503045048 78 360 5.0 12.0 0.00 0.00 0.00 27 1013.1
20260503044618 78 360 4.0 11.0 0.00 0.00 0.00 26 1013.2
20260503044047 79 360 3.0 11.0 0.00 0.00 0.00 26 1013.2
20260503043548 79 360 5.0 11.0 0.00 0.00 0.00 26 1013.1
20260503043054 79 360 6.0 11.0 0.00 0.00 0.00 26 1013.0
20260503042549 79 360 4.0 11.0 0.00 0.00 0.00 26 1013.0
20260503042052 79 360 4.0 12.0 0.00 0.00 0.00 26 1012.9
20260503041555 79 360 4.0 12.0 0.00 0.00 0.00 25 1012.7
20260503041048 79 360 6.0 15.0 0.00 0.00 0.00 25 1012.5
20260503040548 79 360 6.0 15.0 0.00 0.00 0.00 25 1012.4
20260503040058 80 360 6.0 15.0 0.00 0.00 0.00 25 1012.4
20260503035549 80 360 5.0 13.0 0.00 0.00 0.00 25 1012.3
20260503035049 80 360 6.0 12.0 0.00 0.00 0.00 25 1012.2